User: anonymous   Login
Location: Unspecified
(0.0000°N, 0.0000°E)
Time: 06:22:01
(UTC+00:00)
Language:

ISS - Orbit

View from above orbital plane
View from above orbital plane
View from above satellite
View from above satellite

Ground track
Ground track

The orbit data is extracted from the following two-line orbital elements,

1 25544U 98067A   21293.02549976  .00006375  00000-0  12485-3 0  9993
2 25544  51.6428  85.4491 0004212 125.4797 338.6136 15.48748067307946
Epoch (UTC): 20 October 2021 00:36:43
Eccentricity: 0.0004212
inclination: 51.6428°
perigee height: 417 km
apogee height: 423 km
right ascension of ascending node: 85.4491°
argument of perigee: 125.4797°
revolutions per day: 15.48748067
mean anomaly at epoch: 338.6136°
orbit number at epoch: 30794

The dashed part of the orbit path shows where the satellite is in the earth's shadow,  

DLR